Torna al catalogo

STARLINK-4074

AttivoComunicazioniVLEO
NORAD 52678·PAYLOAD·🇺🇸 United States

Lanciato May 18, 2022 da Cape Canaveral Space Force Station

Loading…

Prossimi Passaggi (prossime 24 ore)

TLE

AggiornatoSource: CelesTrak SupGP

Epoca: Sep 14, 2026, 21:37 UTC

1 52678C 22053Y   26257.90118056 -.00022708  00000+0 -73045-3 0  2571
2 52678  53.1610   8.8905 0001021  78.7911 178.8740 15.31704434    11

Traccia STARLINK-4074 in tempo reale con AllMySat

Download on the App Store